{"data":{"norad_id":56143,"epoch":"2026-09-19T01:43:52.044096Z","epoch_age_seconds":232177,"freshness":"STALE","line1":"1 56143U 23046BD  26262.07213014  .00018469  00000+0  83010-3 0  9992","line2":"2 56143  42.9963 151.2238 0006515 203.1334 156.9223 15.20810724191581","mean_motion":15.20810724,"eccentricity":0.0006515,"inclination_deg":42.9963,"raan_deg":151.2238,"arg_perigee_deg":203.1334,"mean_anomaly_deg":156.9223,"bstar":0.0008301,"rev_number":19158,"period_min":94.686339152879,"perigee_km":498.9105742521,"apogee_km":507.87720900389,"semimajor_km":6881.530891628,"source":"CELESTRAK","updated_at":"2026-09-21T09:00:33.390274Z"}}